Погода в Татаурове

Россия / Республика Бурятия     52°08′26″N   107°26′18″E
темп.,
°C
ветер,
м/с
пор.,
м/с
влажн.,
%
обл.,
%
осадки,
мм/ч
давл.,
гПа
погр.,
м
22 мая, вс
вс2223:00+8з239515 0.3 101392
02:00+8з239338 0.3 1013182
05:00+6з229793 0.0 101335
08:00+12зюз246894 0.0 1011436
11:00+17з51044100 0.0 10091669
14:00+21зсз6113387 0.0 10072445
17:00+21зсз5123386 0.0 10052704
20:00+16ссв11492 0.0 100411
23 мая, пн
пн2323:00+11с2376100 0.3 100545
02:00+11ссв1283100 0.6 100542
05:00+10зюз12918 0.5 100656
08:00+12зсз59638 0.5 10081439
11:00+15сз610363 0.0 10092017
14:00+17ссз48270 0.0 10102216
17:00+16с58332 0.0 10121812
20:00+11ссв24510 0.0 1015189
24 мая, вт
вт2423:00+6с227129 0.0 101925
02:00+5ссз11773 0.0 102119
05:00+4ссз118167 0.0 102414
08:00+13ссз02495 0.0 1024725
11:00+18вюв12335 0.0 10232031
14:00+20ююз12285 0.0 10222471
17:00+20вюв12283 0.0 10222198
20:00+14ююз12450 0.0 102439
25 мая, ср
ср2523:00+8ссз11590 0.0 102510
02:00+7с11610 0.0 102510
05:00+7ссв11610 0.0 102510
08:00+15юв11390 0.0 1023265
11:00+21ююв22235 0.0 10201372
14:00+25ююз13157 0.0 10162276
17:00+25з35140 0.0 10142364
20:00+18всв00324 0.0 101311
26 мая, чт
чт2623:00+13ссв1141100 0.0 101310
02:00+12ссв1143100 0.0 101111
05:00+11сз0043100 0.0 101010
08:00+15зюз1138100 0.0 1009152
11:00+23юз342383 0.0 10061524
14:00+25з5623100 0.0 10032729
17:00+22з4630100 0.0 10021171
20:00+17зюз3745100 0.0 1002230